Location: Peebles
(55.6412°N, 3.1714°W)
Time: 16:33:44
(UTC+01:00)

USA 281 - Pass Details

Date: 27 January 2022
Orbit: 1070 x 1089 km, 106.0° (Epoch: 25 March)

Event Time Altitude Azimuth Distance (km) Brightness Sun altitude
Rises 05:58:34 0° 43° (NE) 3,899 6.7 -18.9°
Reaches altitude 10° 06:01:52 10° 27° (NNE) 2,944 5.8 -18.4°
Maximum altitude 06:06:10 19° 346° (NNW) 2,355 4.8 -17.8°
Enters shadow 06:08:38 15° 319° (NW) 2,564 4.8 -17.5°
